GFSFLT1_sfc_thetae_318.txt.gz
Theta_e
349 349 349 349 349 350 350 350 349 347 347 348 345 343 342 338 333 333 338 335 345 344 342 339 340 340 335 337 338 336 341 341 342
350 349 348 347 348 349 349 348 348 347 347 346 343 340 337 332 331 331 331 338 343 343 341 339 337 340 336 336 338 339 340 340 342
348 348 347 347 347 348 348 348 347 347 346 344 341 338 334 330 329 332 330 338 341 342 339 335 334 337 334 334 338 340 341 341 341
348 347 347 347 346 347 347 347 347 346 345 343 339 335 333 329 330 330 330 337 339 339 336 332 335 335 332 335 338 339 341 341 341
344 343 344 345 345 346 346 346 346 344 342 339 336 334 333 328 329 329 334 338 336 333 333 333 332 332 333 335 339 339 340 339 340
339 338 340 342 343 344 345 345 344 340 337 335 333 331 328 327 326 327 338 336 335 336 335 331 334 333 332 337 339 338 338 338 339
338 335 337 340 340 342 344 343 339 335 331 329 329 325 322 323 326 330 337 337 333 333 333 335 334 331 332 335 336 336 335 337 337
335 337 338 338 333 338 339 337 335 332 331 328 327 322 322 321 323 330 335 334 332 332 331 330 330 330 331 331 333 334 334 334 336
335 335 336 336 336 334 331 329 330 332 331 327 326 323 323 322 323 325 330 333 333 330 330 330 329 333 332 332 332 331 331 331 334
333 332 334 334 331 330 327 326 328 330 330 329 328 325 323 323 324 323 327 331 332 329 331 335 329 332 332 334 334 331 330 329 332
330 330 330 329 329 327 327 325 328 329 329 328 326 325 325 324 325 327 328 331 330 331 330 330 331 334 335 334 332 333 331 331 332
329 329 327 327 327 324 321 323 324 330 330 327 326 327 328 328 327 326 330 330 329 331 329 328 330 332 332 332 332 330 329 329 331
329 328 326 326 323 322 321 321 322 328 329 326 325 324 327 327 327 325 323 319 322 328 329 328 329 332 331 328 329 330 328 328 329
329 328 326 324 322 320 319 314 321 322 325 325 323 322 322 324 324 320 318 316 315 316 325 325 328 331 331 329 328 328 329 328 327
329 328 326 323 320 318 317 315 318 319 321 320 318 318 319 320 321 317 316 314 314 316 319 319 322 327 331 329 327 327 328 330 328
327 327 325 324 320 318 317 315 317 316 319 315 313 313 315 315 315 316 312 312 313 315 317 318 319 320 328 330 328 327 328 327 325
325 325 324 323 320 317 316 316 314 314 318 314 311 307 310 311 312 313 312 311 312 313 315 321 319 318 323 325 328 328 325 325 324
325 324 324 323 321 317 317 316 315 315 315 315 309 305 304 308 309 307 310 310 310 311 314 317 320 320 321 323 323 325 326 325 325
325 324 323 322 320 318 318 318 318 316 313 313 311 306 307 303 302 306 306 309 310 310 310 313 316 317 317 316 316 322 325 326 325
326 324 322 321 320 319 318 317 317 317 314 313 308 306 307 304 302 300 302 305 308 309 309 311 312 314 314 314 315 320 326 327 325

GFSFLT1_sfc_thetae_321.txt.gz
Theta_e
352 351 350 350 351 351 351 348 349 349 348 347 344 343 340 336 332 333 338 336 344 340 340 340 335 338 338 335 341 341 342 342 342
351 350 349 349 350 351 350 349 348 348 347 346 343 340 337 331 329 330 334 337 341 340 337 340 336 335 336 339 340 340 341 341 342
349 348 348 349 350 350 349 348 348 346 346 344 340 337 334 330 328 327 333 343 341 337 334 339 335 333 336 340 341 341 341 341 341
347 347 347 348 349 348 347 347 347 346 344 341 339 336 333 328 327 327 327 340 340 336 332 336 332 334 337 338 340 340 341 341 341
345 343 344 347 347 347 346 347 346 344 342 338 336 334 332 327 327 328 331 338 335 334 334 333 332 333 338 340 340 340 340 341 340
340 339 339 343 345 346 346 345 344 340 336 336 334 331 327 326 326 328 336 335 334 333 331 331 333 336 339 339 339 338 339 339 340
340 335 336 341 342 343 345 344 339 333 331 330 329 325 323 324 324 329 337 336 336 333 337 333 330 334 337 338 336 337 337 338 339
337 337 338 336 333 339 340 337 331 330 327 323 321 320 322 321 324 334 335 334 333 334 332 331 330 332 335 336 335 335 336 337 338
336 336 337 335 335 335 333 331 331 329 325 323 323 320 320 320 320 330 332 332 332 332 329 330 329 331 331 332 333 333 334 336 336
335 334 334 333 333 335 330 331 330 329 326 323 325 321 320 320 320 321 328 331 329 330 330 331 334 333 333 331 332 330 332 334 335
333 331 331 331 332 330 327 329 330 328 326 325 325 324 322 321 320 322 325 329 330 333 331 330 332 332 335 335 330 329 331 332 334
331 330 330 330 329 324 324 326 328 327 327 325 325 325 323 323 322 325 326 326 328 330 332 332 334 334 332 332 331 330 331 332 332
330 328 329 329 326 325 324 325 327 327 325 324 325 326 327 327 326 326 327 324 322 328 330 331 331 331 331 332 330 329 329 330 331
329 328 329 328 324 324 324 320 327 327 325 323 324 325 325 325 324 321 320 318 317 318 326 328 330 331 328 328 331 329 328 328 329
328 328 328 327 324 322 322 319 322 327 325 323 320 320 322 322 319 318 317 314 314 315 317 320 325 328 330 328 328 329 329 327 328
328 328 327 326 322 319 320 320 318 322 323 316 314 314 315 319 318 316 314 313 313 315 316 318 323 326 329 328 326 329 331 329 328
328 327 326 325 322 318 319 320 318 316 320 317 312 308 310 311 315 314 313 311 312 313 315 316 319 321 324 322 327 329 327 325 328
328 327 326 325 323 318 318 320 319 315 318 318 311 306 306 307 309 311 312 309 310 311 313 318 317 318 323 324 323 324 326 325 326
328 326 326 325 323 319 318 320 320 317 314 316 314 307 307 303 301 307 309 310 309 309 310 316 317 319 321 320 319 321 324 326 325
326 326 325 325 323 320 319 318 318 318 315 314 311 305 306 304 301 302 303 306 307 309 310 314 315 317 317 317 316 321 325 327 326

GFSFLT1_sfc_thetae_327.txt.gz
Theta_e
351 350 351 351 351 351 351 349 349 348 347 346 346 344 341 341 343 341 341 340 339 338 338 337 336 341 342 343 343 343 343 344 344
349 348 349 350 351 351 349 348 349 348 347 345 344 341 337 341 340 339 338 338 341 337 336 336 340 339 341 342 342 342 342 343 343
349 349 349 350 348 350 348 349 349 348 346 345 342 338 336 338 340 340 339 339 339 338 335 335 341 340 341 342 341 342 342 343 343
347 350 348 347 348 347 349 349 348 348 346 343 339 336 334 338 340 338 336 337 336 335 333 334 339 341 342 341 342 342 342 342 342
343 344 344 344 346 346 347 348 347 346 344 341 337 333 331 333 335 338 335 338 334 332 333 335 339 341 341 341 342 342 342 342 341
342 339 339 342 344 344 345 346 344 341 338 337 334 330 332 331 333 336 337 336 335 331 334 338 341 341 340 341 341 341 341 341 340
326 336 335 341 341 342 344 344 340 336 335 333 331 332 331 331 333 334 336 336 333 331 332 338 340 340 339 340 340 340 340 340 338
330 342 339 339 335 342 341 341 338 336 332 332 331 331 331 332 332 332 336 335 332 333 331 334 338 338 338 338 339 339 339 338 336
324 338 340 338 340 340 340 336 335 334 330 329 329 330 331 333 332 332 333 337 337 332 330 333 335 336 336 337 338 338 338 336 335
313 336 338 338 339 339 335 334 333 331 328 327 329 328 329 332 331 330 328 333 333 332 331 329 330 334 334 335 336 337 337 336 335
312 331 335 336 338 339 335 333 331 330 327 325 327 327 329 331 330 329 329 330 331 331 330 331 331 330 333 332 334 336 336 334 333
310 323 334 335 337 336 334 331 331 329 327 325 324 326 328 328 328 329 326 326 328 331 333 335 336 332 330 331 333 335 335 333 331
309 313 331 334 335 335 332 331 327 327 326 323 323 324 326 326 327 327 325 325 330 331 333 335 336 335 331 331 331 333 334 332 330
311 313 330 334 333 332 331 329 326 326 326 323 323 324 324 325 326 326 325 326 325 325 329 329 330 332 332 330 332 333 333 332 329
306 312 322 331 331 329 329 327 326 326 325 323 322 324 325 325 327 325 324 326 325 325 327 330 328 328 331 330 330 330 330 330 331
297 306 315 330 328 328 329 326 324 324 326 323 319 319 323 322 323 324 323 321 323 323 325 327 330 326 328 331 329 329 330 329 328
298 304 309 328 326 325 326 326 323 323 326 320 318 312 315 317 319 321 320 319 320 321 321 324 327 327 326 326 329 330 328 328 327
296 300 308 324 326 323 323 326 324 320 323 324 320 311 311 312 315 316 318 316 318 320 320 323 325 325 325 324 326 327 329 329 326
294 298 303 311 326 323 322 326 326 324 319 322 324 323 318 313 307 312 313 315 316 319 320 321 323 324 325 321 320 321 323 327 326
294 298 301 309 326 323 322 323 326 325 322 320 319 315 319 317 314 308 307 311 313 315 319 320 321 320 324 324 320 320 324 325 328

GFSFLT1_sfc_thetae_330.txt.gz
Theta_e
351 350 350 350 349 349 349 351 350 349 348 347 347 345 344 343 341 339 341 335 338 336 336 337 341 343 343 343 343 344 344 344 345
349 349 350 350 349 348 348 349 348 348 347 346 345 343 342 342 340 339 340 339 337 336 336 338 339 342 342 342 342 342 344 344 344
347 348 348 349 351 350 349 349 347 348 347 345 343 340 339 338 339 339 336 341 338 334 333 340 339 340 341 341 342 342 343 343 343
338 347 347 348 348 347 347 347 348 347 346 344 340 338 338 340 339 337 337 340 337 334 332 339 341 342 342 342 342 342 342 343 343
335 337 345 346 347 345 345 347 347 347 345 341 338 334 335 338 339 337 335 340 334 333 335 336 340 342 342 342 342 342 342 341 342
329 332 338 343 344 344 344 344 345 343 340 338 334 331 335 334 336 335 337 337 333 334 334 337 341 341 341 341 341 341 341 341 340
320 326 330 339 341 341 342 342 341 339 339 334 331 333 333 333 334 335 337 337 332 333 337 341 340 340 340 340 340 340 340 339 338
316 325 340 344 336 343 342 343 343 340 336 333 332 333 333 333 333 333 336 335 332 331 334 339 340 339 339 339 339 339 338 337 335
312 316 327 342 344 339 339 341 342 339 336 333 332 332 333 333 332 332 333 336 334 333 330 336 338 338 338 338 338 338 337 335 334
307 313 317 341 343 338 337 338 338 339 335 333 331 331 332 332 331 332 329 333 335 332 333 333 336 336 336 337 338 337 336 335 333
302 308 315 332 339 339 337 336 336 334 333 331 331 331 332 332 331 331 331 331 333 334 332 331 332 334 334 335 336 337 335 333 332
300 303 309 317 339 339 335 334 335 333 332 330 330 330 330 331 330 329 329 328 328 331 331 332 331 331 332 333 335 335 333 332 331
299 303 306 314 334 336 334 332 330 331 330 329 329 329 328 330 329 328 327 327 326 329 332 335 334 333 330 332 335 335 333 331 329
298 299 304 313 325 334 333 330 331 330 329 328 328 328 328 329 328 327 325 326 329 329 329 331 332 332 331 331 333 334 332 330 328
296 299 298 305 313 331 332 329 329 329 329 325 325 327 327 328 327 326 325 326 327 328 329 331 328 329 331 331 333 333 333 330 328
294 296 297 300 309 322 331 329 326 325 328 322 323 324 325 325 326 326 324 324 325 326 327 328 327 326 329 331 331 329 330 330 330
295 297 299 300 307 311 329 328 324 324 325 322 320 314 318 322 324 325 322 322 324 324 324 327 328 326 326 328 329 330 329 328 327
293 295 296 296 301 307 329 328 325 321 323 324 321 313 311 315 320 322 322 322 323 323 323 324 328 327 325 326 326 326 329 329 328
292 293 295 296 298 304 319 328 327 324 320 322 324 324 321 313 309 318 320 320 321 322 323 322 326 328 325 321 321 322 326 330 327
291 293 295 295 298 301 309 327 326 325 322 322 322 322 322 321 315 309 312 316 319 321 323 323 324 326 325 325 322 321 324 328 327